#timestamp,LO_Frequency,Hit,StdDev 
1505293215.7,286046999.7,N,1.2
1505293235.5,286047002.5,N,1.2
1505293255.4,286047000.0,N,1.2
1505293275.2,286047000.0,N,1.2
1505293295.1,286047000.2,N,1.2
1505293296.0,286047000.2,N,1.2
1505293315.8,286046999.7,N,1.2
1505293335.6,286047000.2,N,1.2
1505293355.5,286047002.3,N,1.2
1505293375.3,286047002.2,N,1.2
1505293395.1,286047002.7,N,1.2
1505293415.9,286046999.8,N,1.2
1505293435.7,286047002.3,N,1.2
1505293455.6,286047001.0,N,1.2
1505293475.4,286047000.1,N,1.2
1505293495.3,286046999.8,N,1.2
1505293515.1,286047002.4,N,1.2
1505293535.9,286047002.5,N,1.2
1505293555.7,286047001.5,N,1.2
1505293575.5,286047001.4,N,1.1
1505293595.4,286047004.4,Y,0.0
1505293615.2,286047002.8,P,0.8
1505293635.1,286047000.0,N,1.1
1505293636.0,286047000.0,N,1.1
1505293655.8,286047000.2,N,1.1
1505293675.6,286046999.9,N,1.0
1505293695.5,286046999.8,N,1.0
1505293715.3,286047001.5,N,1.0
1505293735.2,286047004.3,Y,0.0
1505293755.9,286047001.8,P,0.6
1505293775.7,286047000.6,N,0.5
1505293795.6,286047001.0,N,0.5
1505293815.4,286047001.1,N,0.4
1505293835.2,286047001.1,N,0.4
1505293855.1,286046999.7,N,0.6
1505293856.0,286046999.7,N,0.7
1505293875.8,286047000.4,N,0.6
1505293895.7,286046999.7,N,0.7
1505293915.5,286046999.8,N,0.7
1505293935.3,286047000.3,N,0.7
1505293955.2,286047002.0,Y,0.0
1505293975.0,286047000.3,P,0.1
1505293975.9,286047000.3,N,0.1
1505293995.8,286047000.5,P,0.1
1505294015.6,286047000.4,Y,0.0
1505294035.4,286046999.9,P,0.2
1505294055.3,286047002.1,P,0.9
1505294075.1,286047000.2,N,0.9
1505294095.9,286047000.3,N,0.8
1505294115.7,286047000.5,N,0.7
1505294135.5,286047000.6,N,0.7
1505294155.4,286047000.0,N,0.6
1505294175.2,286047000.5,N,0.6
1505294195.1,286047000.4,N,0.6
1505294196.0,286047000.4,N,0.6
1505294215.8,286047000.5,N,0.5
1505294235.6,286047000.9,N,0.5
1505294255.5,286047000.0,N,0.5
1505294275.3,286047000.0,N,0.5
1505294295.1,286046999.9,N,0.5
1505294315.9,286047000.1,N,0.5
1505294335.7,286047002.4,Y,0.0
1505294355.6,286047000.1,P,0.1
1505294375.4,286047002.7,P,1.2
1505294395.2,286047002.8,N,1.3
1505294415.1,286047002.2,N,1.2
1505294416.0,286047002.2,N,1.1
1505294435.8,286047000.1,N,1.1
1505294455.7,286047000.3,N,1.1
1505294475.5,286047000.4,N,1.1
1505294495.3,286047000.0,N,1.1
1505294515.2,286047000.2,N,1.1
1505294535.0,286046999.7,N,1.1
1505294535.9,286046999.7,N,1.1
1505294555.8,286047002.5,N,1.2
1505294575.6,286047001.9,N,1.2
1505294595.4,286047002.0,N,1.1
1505294615.3,286047002.0,N,1.1
1505294635.1,286047002.3,N,1.1
1505294655.9,286047001.6,N,1.1
1505294675.7,286047000.1,N,1.1
1505294695.5,286046999.7,N,1.1
1505294715.4,286047002.3,N,1.1
1505294735.2,286046999.8,N,1.1
1505294755.0,286047000.9,N,1.1
1505294755.9,286047000.9,N,1.1
1505294775.8,286047000.5,N,1.1
1505294795.6,286047002.8,N,1.1
1505294815.5,286047000.3,N,1.1
1505294835.3,286047002.3,N,1.1
1505294855.1,286047002.6,N,1.1
1505294875.9,286047000.1,N,1.1
1505294895.7,286046999.8,N,1.1
1505294915.6,286047002.8,N,1.1
1505294935.4,286047002.4,N,1.1
1505294955.2,286047001.8,N,1.1
1505294975.1,286047002.1,N,1.1
1505294976.0,286047002.1,N,1.1
1505294995.8,286047002.3,N,1.1
1505295015.7,286047001.4,N,1.1
1505295035.5,286047001.9,N,1.1
1505295055.3,286047002.2,N,1.1
1505295075.2,286047002.4,N,1.0
1505295095.0,286047001.4,N,1.0
1505295095.9,286047001.4,N,0.9
1505295115.7,286047002.3,N,1.0
1505295135.6,286047001.9,N,1.0
1505295155.4,286047002.2,N,1.0
1505295175.3,286047001.8,N,0.9
1505295195.1,286047002.1,N,1.0
1505295215.9,286047002.0,N,0.9
1505295235.7,286047002.7,N,0.9
1505295255.5,286047001.6,N,0.9
1505295275.4,286046999.8,N,0.9
1505295295.2,286047002.4,N,0.9
1505295315.1,286047000.2,N,0.9
1505295316.0,286047000.2,N,0.9
1505295335.8,286046999.7,N,0.9
1505295355.6,286046999.8,N,1.0
1505295375.5,286047002.1,N,1.0
1505295395.3,286047002.0,N,1.0
1505295415.1,286047001.5,N,0.9
1505295435.9,286047001.8,N,0.9
1505295455.7,286047001.4,N,0.8
1505295475.6,286047001.6,N,0.8
1505295495.4,286047002.2,N,0.8
1505295515.2,286047002.1,N,0.8
1505295535.1,286047001.6,N,0.8
1505295536.0,286047001.6,N,0.8
1505295555.8,286047001.6,N,0.8
1505295575.7,286047004.2,Y,0.0
1505295595.5,286047002.6,P,0.5
1505295615.3,286047002.5,P,0.5
1505295635.2,286047002.7,P,0.4
1505295655.0,286046999.8,N,1.1
1505295655.9,286046999.8,N,1.3
1505295675.8,286046999.7,N,1.3
1505295695.6,286047000.1,N,1.3
1505295715.4,286047000.8,N,1.2
1505295735.3,286047000.8,N,1.2
1505295755.1,286047000.1,N,1.1
1505295775.9,286047002.7,N,1.2
1505295795.7,286047000.5,N,1.2
1505295815.5,286047001.0,N,1.1
1505295835.4,286047000.0,N,1.1
1505295855.2,286047000.8,N,1.1
1505295875.0,286047000.7,N,1.0
1505295876.0,286047000.7,N,1.0
1505295895.8,286047000.7,N,1.0
1505295915.6,286047000.0,N,1.0
1505295935.5,286047000.4,N,1.0
1505295955.3,286047001.1,N,0.9
1505295975.1,286047000.7,N,0.9
1505295995.9,286047000.3,N,0.9
1505296015.7,286047000.3,N,0.9
1505296035.6,286047000.5,N,0.9
1505296055.4,286046999.8,N,0.9
1505296075.2,286047002.2,N,0.9
1505296095.1,286047002.2,N,0.9
1505296096.0,286047002.2,N,0.9
1505296115.8,286046999.8,N,1.0
1505296135.7,286047001.7,N,0.9
1505296155.5,286047002.7,N,0.9
1505296175.3,286047000.1,N,0.9
1505296195.2,286046999.9,N,0.9
1505296215.0,286047000.4,N,0.9
1505296215.9,286047000.4,N,0.8
1505296235.7,286046999.7,N,0.8
1505296255.6,286047000.7,N,0.8
1505296275.4,286047002.8,Y,0.0
1505296295.3,286047002.7,P,1.0
1505296315.1,286047002.5,N,0.9
1505296335.9,286047002.6,N,0.8
1505296355.7,286047002.6,Y,0.0
1505296375.5,286046998.8,P,1.7
1505296395.4,286046999.4,N,1.5
1505296415.2,286046998.4,N,1.5
1505296435.0,286046999.3,N,1.3
1505296435.9,286046999.3,N,1.2
1505296455.8,286046999.4,N,1.1
1505296475.6,286047001.1,N,1.2
1505296495.5,286047001.2,N,1.2
1505296515.3,286046998.4,N,1.2
1505296535.1,286046998.7,N,1.2
1505296555.9,286047000.8,N,1.2
1505296575.7,286047000.0,N,1.1
1505296595.6,286047001.0,N,1.2
1505296615.4,286047000.7,N,1.1
1505296635.2,286047001.1,N,1.1
1505296655.1,286046998.7,N,1.1
1505296656.0,286046998.7,N,1.1
1505296675.8,286046998.5,N,1.2
1505296695.7,286047001.1,N,1.2
1505296715.5,286047001.0,N,1.2
1505296735.3,286046998.2,N,1.2
1505296755.2,286046998.4,N,1.2
1505296775.0,286047001.0,N,1.2
1505296775.9,286047001.0,N,1.2
1505296795.7,286047000.3,N,1.2
